Sioux Falls, SD

1:02 AM CDT on October 21, 2019 (GMT -0500)
Foss

Weather History for KFSD - August, 2019

Change the Weather History Date:

Thursday, August 1, 2019

  Actual Average Record
Temperature  
Mean Temperature 74 °F 73 °F  
Max Temperature 83 °F 84 °F 102 °F (2012)
Min Temperature 64 °F 62 °F 45 °F (1904)
Degree Days  
Heating Degree Days 0 0  
Month to date heating degree days 0 0  
Since 1 June heating degree days 20 59  
Since 1 July heating degree days 0 8  
Cooling Degree Days 9 8  
Month to date cooling degree days 9 8  
Year to date cooling degree days 537 435  
Since 1 June cooling degree days 522 399  
Growing Degree Days 23 (Base 50)    
Moisture  
Dew Point 65 °F    
Average Humidity 73    
Maximum Humidity 87    
Minimum Humidity 58    
Precipitation  
Precipitation 0.00 in 0.11 in 4.59 in (1975)
Month to date precipitation 0.00 0.11  
Year to date precipitation 27.19 16.45  
Snow  
Snow 0.00 in 0.00 in 0.00 in ()
Month to date snowfall 0.0 0.0  
Since 1 June snowfall T 0.0  
Since 1 July snowfall T 0.0  
Snow Depth 0.00 in    
Sea Level Pressure  
Sea Level Pressure 30.11 in    
Wind  
Wind Speed 8 mph (SE)    
Max Wind Speed 17 mph    
Max Gust Speed 22 mph    
Visibility 10 miles    
Events      
T = Trace of Precipitation, MM = Missing Value Source: NWS Daily Summary

Daily Weather History Graph

Daily Weather History Graph

Search for Another Location

Airport or City:

Astronomy

Aug. 01, 2019 Rise Set
Actual Time 6:16 AM CDT 8:49 PM CDT
Civil Twilight 5:43 AM CDT 9:22 PM CDT
Nautical Twilight 5:02 AM CDT 10:03 PM CDT
Astronomical Twilight 4:15 AM CDT 10:49 PM CDT
Moon 6:41 AM CDT (8/1) 9:37 PM CDT (8/1)
Length of Visible Light 15h 38m
Length of Day
14h 33m
New Moon, 1% of the Moon is Illuminated
Aug 1
New Moon
Aug 7
First Quarter
Aug 15
Full
Aug 23
Last Quarter
Aug 30
New

Hourly Weather History & Observations

Time (CDT) Temp. Heat Index Dew Point Humidity Pressure Visibility Wind Dir Wind Speed Gust Speed Precip Events Conditions
12:56 AM 68.0 °F - 64.0 °F 87% 30.12 in 10.0 mi SE 4.6 mph - N/A   Overcast
1:56 AM 68.0 °F - 64.0 °F 87% 30.11 in 10.0 mi ESE 8.1 mph - N/A   Overcast
2:56 AM 66.9 °F - 63.0 °F 87% 30.10 in 10.0 mi ESE 6.9 mph - N/A   Overcast
3:56 AM 66.9 °F - 62.1 °F 84% 30.09 in 10.0 mi SE 6.9 mph - N/A   Overcast
4:56 AM 66.9 °F - 62.1 °F 84% 30.09 in 10.0 mi SSE 9.2 mph - N/A   Overcast
5:56 AM 66.0 °F - 61.0 °F 84% 30.11 in 10.0 mi SE 4.6 mph - N/A   Mostly Cloudy
6:56 AM 64.9 °F - 61.0 °F 87% 30.12 in 10.0 mi South 6.9 mph - N/A   Mostly Cloudy
7:56 AM 68.0 °F - 61.0 °F 78% 30.14 in 10.0 mi SE 4.6 mph - N/A   Scattered Clouds
8:56 AM 69.1 °F - 61.0 °F 75% 30.16 in 10.0 mi SSE 6.9 mph - N/A   Overcast
9:56 AM 71.1 °F - 62.1 °F 73% 30.16 in 10.0 mi SSE 9.2 mph - N/A   Mostly Cloudy
10:56 AM 75.0 °F - 64.0 °F 69% 30.13 in 10.0 mi SSE 8.1 mph - N/A   Mostly Cloudy
11:56 AM 77.0 °F - 64.9 °F 66% 30.13 in 10.0 mi SE 10.4 mph - N/A   Mostly Cloudy
12:56 PM 80.1 °F 82.3 °F 66.9 °F 64% 30.12 in 10.0 mi SSE 9.2 mph - N/A   Scattered Clouds
1:56 PM 82.0 °F 84.5 °F 66.9 °F 60% 30.11 in 10.0 mi SSE 10.4 mph - N/A   Partly Cloudy
2:56 PM 82.9 °F 85.8 °F 68.0 °F 60% 30.11 in 10.0 mi South 9.2 mph - N/A   Mostly Cloudy
3:56 PM 82.0 °F 84.5 °F 66.9 °F 60% 30.10 in 10.0 mi SSE 10.4 mph - N/A   Mostly Cloudy
4:56 PM 81.0 °F 83.3 °F 66.9 °F 62% 30.10 in 10.0 mi South 11.5 mph - N/A   Mostly Cloudy
5:56 PM 80.1 °F 82.3 °F 66.9 °F 64% 30.10 in 10.0 mi SE 8.1 mph - N/A   Overcast
6:56 PM 80.1 °F 82.9 °F 69.1 °F 69% 30.09 in 10.0 mi ESE 8.1 mph - N/A   Overcast
7:56 PM 79.0 °F - 69.1 °F 72% 30.07 in 10.0 mi ESE 9.2 mph - N/A   Overcast
8:56 PM 78.1 °F - 68.0 °F 71% 30.09 in 10.0 mi SE 10.4 mph - N/A   Overcast
9:56 PM 75.9 °F - 68.0 °F 76% 30.10 in 10.0 mi ESE 6.9 mph - N/A   Overcast
10:56 PM 75.0 °F - 68.0 °F 79% 30.11 in 10.0 mi SE 8.1 mph - N/A   Overcast
11:56 PM 73.9 °F - 68.0 °F 82% 30.11 in 10.0 mi SSE 8.1 mph - N/A   Mostly Cloudy